Flag for U.S.A. Weather past 2 weeks in Stillwater, Minnesota, U.S.A.

Now
61 °F

Sunny.


Feels Like: 61 °F
Forecast: 40 / 67 °F
Wind: 8 mph from West

Location: St. Paul Downtown Holman Field

Current Time: Mar 31, 2015 at 7:31:49 PM

Latest Report: Mar 31, 2015 at 6:53 PM


Visibility: 10 mi

Pressure: 29.88 "Hg

Humidity: 23%

Dew point: 23 °F

Location of StillwaterLocation

Historic Weather in Stillwater — Graph

°F

Stillwater temperature yesterday

Maximum temperature yesterday: 56 °F (at 4:53 PM)
Minimum temperature yesterday: 36 °F (at 6:53 AM)
Average temperature yesterday: 45 °F

Past Weeks' High & Low Weather Summary

 TemperatureHumidityPressure
High64 °F (Mar 31, 3:53 PM)100% (Mar 31, 3:53 AM)30.53 "Hg (Mar 31, 3:53 AM)
Low19 °F (Mar 27, 5:53 AM)18% (Mar 17, 3:53 PM)29.57 "Hg (Mar 29, 10:53 AM)
Average36 °F58%30.14 "Hg
* Reported Mar 16 5:53 PM — Mar 31 5:53 PM, Stillwater, Weather by CustomWeather, © 2015

Note: Actual official high and low records may vary slightly from our data, if they occured in-between our weather recording intervals... More about our weather records

Advertising

Stillwater weather history for previous 24 hours

 ConditionsComfort  
Time TempWeatherWind HumidityBarometerVisibility
5:53 PM
Tue, Mar 31
64 °FSunny.8 mph22%29.88 "Hg10 mi
4:53 PM64 °FSunny.9 mph22%29.88 "Hg10 mi
3:53 PM64 °FSunny.10 mph22%29.89 "Hg10 mi
2:53 PM63 °FSunny.10 mph25%29.90 "Hg10 mi
1:53 PM62 °FSunny.16 mph27%29.92 "Hg10 mi
12:53 PM60 °FSunny.15 mph33%29.93 "Hg10 mi
11:53 AM58 °FSunny.13 mph41%29.94 "Hg10 mi
10:53 AM53 °FSunny.6 mph52%29.95 "Hg10 mi
9:53 AM48 °FSunny.8 mph66%29.94 "Hg10 mi
8:53 AM37 °FSunny.3 mph96%29.94 "Hg7 mi
7:53 AM32 °FFog.No wind100%29.93 "Hg0 mi
6:53 AM32 °FIce fog.No wind96%29.91 "Hg0 mi
5:53 AM31 °FIce fog.No wind100%29.90 "Hg6 mi
4:53 AM32 °FClear.No wind96%29.90 "Hg8 mi
3:53 AM32 °FPassing clouds.5 mph100%29.90 "Hg8 mi
3:00 AM34 °FFog.No wind97%29.88 "Hg2 mi
1:53 AM36 °FClear.No wind97%29.89 "Hg9 mi
12:53 AM39 °FClear.No wind86%29.90 "Hg10 mi
11:53 PM
Mon, Mar 30
41 °FClear.5 mph86%29.91 "Hg10 mi
10:53 PM42 °FClear.6 mph82%29.90 "Hg10 mi
9:53 PM45 °FClear.7 mph74%29.88 "Hg10 mi
8:53 PM47 °FClear.10 mph71%29.86 "Hg10 mi
7:53 PM51 °FPassing clouds.6 mph50%29.82 "Hg10 mi
Weather by CustomWeather, © 2015

See weather overviewHow to use our weather pages